Skip Page Navigation
NASA JPL Caltech
NASA Logo - Jet Propulsion Laboratory + View the NASA Portal
+ Near-Earth Object (NEO) Program
Search JPL
JPL Home Earth Solar System Stars & Galaxies Technology
JPL Solar System Dynamics
BODIES ORBITS EPHEMERIDES TOOLS PHYSICAL DATA DISCOVERY FAQ SITE MAP
JPL Small-Body Database Browser
Search: [ help ]  
11005 Waldtrudering (1980 PP1)
Classification: Main-belt Asteroid          SPK-ID: 2011005
Ephemeris | Orbit Diagram | Orbital Elements | Physical Parameters | Discovery Circumstances ]

[ show orbit diagram ]
Orbital Elements at Epoch 2456400.5 (2013-Apr-18.0) TDB
Reference: JPL 1 (heliocentric ecliptic J2000)
 Element Value Uncertainty (1-sigma)   Units 
e .1962215132966798 6.6077e-08  
a 2.657323822726944 2.6624e-08 AU
q 2.135899720912145 1.7052e-07 AU
i 8.442885213170776 9.3001e-06 deg
node 303.6560430502494 4.7686e-05 deg
peri 99.28875554895187 5.6481e-05 deg
M 151.7717209220705 2.9375e-05 deg
tp 2455733.457499004018
(2011-Jun-20.95749900)
0.00012351 JED
period 1582.213727956967
4.33
2.3778e-05
6.51e-08
d
yr
n .2275293113938847 3.4194e-09 deg/d
Q 3.178747924541743 3.1848e-08 AU
  Orbit Determination Parameters
   # obs. used (total)      732  
   data-arc span      11937 days (32.68 yr)  
   first obs. used      1980-08-06  
   last obs. used      2013-04-12  
   planetary ephem.      DE405  
   SB-pert. ephem.      SB405-CPV-2  
   condition code      0  
   fit RMS      .53429  
   data source      ORB  
   producer      Otto Matic  
   solution date      2013-Apr-29 13:42:38  

Additional Information
 Earth MOID = 1.16353 AU 
 T_jup = 3.344 
[ show covariance matrix ]

Ephemeris | Orbit Diagram | Orbital Elements | Physical Parameters | Discovery Circumstances ]

Physical Parameter Table
Parameter Symbol Value Units Sigma Reference Notes
absolute magnitude H 13.7 mag n/a PDS3 (MPC 35212)  

11005 Waldtrudering           Discovered 1980 Aug. 6 by R. M. West at the European Southern Observatory.
Waldtrudering is a beautiful residential area in Munich, Bavaria, where the discoverer and his family have lived since 1980, with many good friends in a wonderful neighborhood.
NOTE: some special characters may not display properly (any characters within {} are an attempt to place the proper accent above a character)
Reference: 20090209/MPCPages.arcLast Updated: 2009-02-11

Alternate Designations
 1980 PP1 = 1993 TN39 
Ephemeris | Orbit Diagram | Orbital Elements | Physical Parameters | Discovery Circumstances ]
ABOUT SSD CREDITS/AWARDS PRIVACY/COPYRIGHT GLOSSARY LINKS
FirstGov 2013-May-21 11:09 UT
(server date/time)  
NASA Home Page
Site Manager:   Donald K. Yeomans
Webmaster  Alan B. Chamberlin